Temp
61 63 64 65 65 60 58 60 62 68 68 67 68 66 66 65 63 63 61 59 59 58
61 63 63 61 60 59 59 60 60 63 66 68 67 66 65 63 62 62 61 59 59 58
61 62 63 60 59 59 60 60 61 61 64 65 64 64 64 63 63 61 60 61 62 59
61 62 61 60 60 59 60 60 60 62 62 63 64 65 62 62 63 62 62 61 61 60
60 61 60 60 59 60 60 63 64 64 62 63 63 62 62 61 63 60 59 60 58 59
59 60 59 59 60 61 61 62 62 63 63 62 62 62 61 61 59 61 60 60 58 58
58 59 59 59 60 60 60 59 59 61 62 61 61 62 61 60 59 58 57 57 57 57
57 58 59 59 58 59 58 58 60 60 61 61 60 61 59 58 56 55 55 55 56 56
58 58 58 58 58 58 58 58 59 60 59 58 59 58 57 56 54 53 52 50 52 54
57 56 57 57 57 56 56 57 57 58 58 57 56 57 56 55 53 51 51 51 51 52
55 55 55 56 56 56 56 56 56 56 56 55 56 57 56 55 52 50 51 51 51 51
56 55 55 55 55 55 55 55 56 56 55 54 53 56 55 53 51 51 50 53 53 50
56 55 54 54 53 53 53 53 53 53 54 54 52 54 54 53 53 50 49 50 50 53
56 55 53 52 52 51 50 50 50 49 50 51 52 52 56 56 52 49 46 46 45 49
MSLP
1004.99 1004.50 1004.38 1004.13 1004.51 1006.30 1008.11 1008.81 1008.58 1007.06 1006.73 1007.94 1008.58 1009.30 1010.35 1011.05 1011.63 1012.15 1012.76 1013.54 1014.12 1014.42
1005.38 1004.91 1004.44 1004.49 1004.64 1006.07 1006.31 1007.02 1004.67 1007.39 1007.00 1007.71 1008.55 1009.53 1010.20 1011.07 1011.69 1012.38 1013.04 1013.71 1014.19 1014.47
1005.66 1005.26 1005.09 1005.32 1005.61 1006.41 1006.43 1005.96 1008.89 1008.32 1006.99 1008.24 1008.70 1009.85 1010.16 1011.14 1011.89 1012.63 1013.33 1013.77 1014.12 1014.67
1005.69 1005.79 1005.54 1005.71 1005.56 1006.93 1006.67 1007.03 1008.32 1009.07 1008.81 1008.88 1009.12 1010.13 1010.47 1011.46 1012.19 1012.82 1013.50 1013.99 1014.43 1015.01
1005.99 1006.33 1006.06 1005.55 1005.43 1006.48 1006.04 1006.15 1007.28 1008.21 1008.93 1009.10 1009.80 1010.39 1011.06 1011.83 1012.56 1013.23 1013.96 1014.41 1014.78 1015.48
1006.29 1006.48 1006.34 1006.04 1006.07 1006.59 1006.76 1006.96 1007.56 1007.93 1008.32 1009.72 1010.16 1010.89 1011.61 1012.21 1012.99 1013.48 1014.35 1014.75 1015.20 1015.85
1006.31 1006.33 1006.09 1006.48 1006.52 1006.79 1006.99 1007.55 1007.84 1008.53 1009.05 1010.03 1010.59 1011.38 1012.20 1012.72 1013.42 1014.20 1015.03 1015.45 1015.89 1016.34
1006.73 1006.18 1006.63 1006.99 1007.36 1007.57 1007.78 1008.23 1008.50 1008.84 1009.65 1010.34 1011.05 1011.93 1012.55 1013.21 1014.14 1015.06 1015.69 1016.16 1016.58 1017.12
1007.23 1007.08 1007.16 1007.43 1007.84 1008.02 1008.48 1008.70 1008.86 1009.54 1010.20 1010.94 1011.89 1012.52 1013.02 1013.80 1014.90 1015.83 1016.44 1017.00 1017.63 1018.10
1007.45 1007.50 1007.71 1008.00 1008.21 1008.45 1008.93 1009.13 1009.64 1010.15 1010.71 1011.62 1012.44 1013.14 1013.72 1014.74 1015.71 1016.46 1017.14 1017.77 1018.50 1019.15
1007.93 1008.02 1008.14 1008.17 1008.60 1009.03 1009.41 1009.80 1010.37 1010.83 1011.50 1012.20 1013.31 1013.84 1014.41 1015.52 1016.37 1017.15 1017.93 1018.62 1019.30 1019.54
1008.02 1008.12 1008.26 1008.61 1008.78 1009.22 1009.74 1010.46 1010.91 1011.51 1012.15 1012.85 1013.94 1014.41 1015.21 1015.97 1017.03 1017.86 1018.72 1019.36 1019.86 1019.91
1007.91 1008.10 1008.32 1008.84 1009.29 1009.79 1010.37 1010.92 1011.41 1012.15 1012.77 1013.71 1014.58 1015.11 1015.74 1016.41 1017.32 1018.35 1019.32 1020.24 1020.47 1020.65
1007.79 1008.24 1008.87 1009.40 1010.08 1010.52 1011.21 1011.75 1012.40 1013.13 1013.99 1014.61 1015.34 1016.23 1016.29 1016.89 1017.82 1018.96 1020.07 1020.77 1021.05 1021.39
Wind_Speed
10 6 4 4 2 9 10 7 13 5 10 10 10 8 7 5 5 7 6 7 5 3
8 8 3 3 9 10 12 5 22 18 10 11 10 8 8 6 6 6 6 6 6 3
8 6 4 2 9 5 6 13 8 17 3 10 9 7 9 7 6 7 4 4 6 5
6 4 2 4 7 9 8 11 15 11 4 7 9 8 8 8 8 10 7 5 5 7
5 2 3 3 5 7 11 15 17 12 6 6 7 8 10 8 10 9 7 6 7 7
7 3 4 5 6 6 8 9 8 7 12 6 7 10 8 10 9 9 7 6 8 6
1 2 5 5 6 6 6 6 6 7 11 9 9 10 11 10 10 10 8 8 8 7
2 4 5 5 5 7 7 6 6 9 9 10 10 8 13 12 12 11 11 10 9 8
1 4 5 5 6 7 8 8 9 10 11 11 8 19 20 15 12 12 13 12 12 11
1 3 5 5 7 7 8 9 8 9 12 12 14 23 25 22 12 12 12 13 12 11
3 4 5 7 8 7 6 8 8 10 12 13 13 24 26 24 14 13 12 12 11 11
5 6 7 8 9 8 10 8 8 10 13 14 13 25 26 20 14 13 11 8 9 12
5 6 8 8 9 7 9 8 8 11 12 18 14 23 27 20 11 14 11 11 12 19
8 9 9 10 9 11 10 11 12 12 11 13 14 14 22 22 13 11 11 8 8 8
Wind_Direction
330 310 287 270 240 79 74 83 312 187 130 135 124 118 126 122 105 103 99 104 100 90
332 321 326 27 103 121 131 289 16 338 145 126 119 122 121 113 109 103 107 126 115 106
322 300 326 49 113 64 127 100 53 340 33 116 116 118 110 107 116 107 110 104 116 99
320 298 4 133 125 146 130 130 140 210 258 116 103 112 101 103 109 102 105 103 112 103
21 278 157 107 117 178 156 152 162 165 134 100 109 104 106 109 105 109 102 104 105 100
324 229 92 82 87 109 135 130 139 138 122 116 108 109 106 108 109 103 99 87 84 94
226 293 81 75 78 86 87 109 106 122 122 122 114 109 118 104 94 86 79 77 76 69
339 1 96 81 79 90 79 88 107 104 116 114 105 111 105 99 94 94 86 77 76 79
15 102 74 91 99 101 97 84 82 109 120 108 106 107 103 101 100 95 92 84 73 76
43 107 133 128 117 105 108 106 97 106 106 103 108 111 108 104 100 100 96 95 94 92
200 139 123 126 122 114 109 113 115 105 108 109 117 115 110 108 101 95 97 98 107 110
181 155 144 129 116 105 105 101 113 113 114 113 118 120 115 106 106 106 108 104 94 94
177 140 118 110 105 91 93 97 97 104 108 118 119 124 119 116 113 102 96 90 93 97
169 127 118 107 108 106 103 98 94 94 100 108 119 127 124 119 111 110 107 100 87 93